86P/Wild 3 (2008)

Japanese version
Home page
Total 6,336 html files since Dec. 4, 1995
Updated on June 2, 2008

---------------------------------------------------------------------

* Profile

* Orbital Elements

The following orbital elements are taken from MPC 54168:

Epoch 2008 May 14.0 TT = JDT 2454600.5
T 2008 May 20.0012 TT                                   MPC
q   2.301154             (2000.0)            P               Q
n   0.1425404      Peri.  179.1527      -0.3128826      +0.9151571
a   3.629477       Node    72.5835      -0.8729762      -0.1716712
e   0.365982       Incl.   15.4478      -0.3741884      -0.3647141
P   6.91
From 84 observations 1980-2001, mean residual 0".9.  Nongravitational
     parameters A1 = +0.65, A2 = +0.1112.

* Finding Charts

* Magnitudes Graph

        m1 = 11.5 + 5 log d + 15.0 log r

---------------------------------------------------------------------

The orbital elements are published at the MPC Ephemerides and Orbital Elements.
The charts are made with StellaNavigator Ver.2.0 for Windows (AstroArts / ASCII).
The magnitudes graphs are made with Comet for Windows.

---------------------------------------------------------------------

Copyright(C) 1995-2008 Seiichi Yoshida (comet@aerith.net). All rights reserved.